Regional Weather Roundup
Issued by NWS

Home | Current Version | Previous Version | Text Only | Print | Product List | Glossary On
Versions: 1 2 3 4 5 6 7 8 9 10 11 12 13 14 15 16 17 18 19 20 21 22 23 24 25 26 27 28 29 30 31 32 33 34 35 36 37 38 39 40 41 42 43 44 45 46 47 48 49 50
000
ASUS43 KTOP 131008
RWRKS

WEATHER ROUNDUP FOR KANSAS
NATIONAL WEATHER SERVICE GOODLAND KS
500 AM CDT SUN JUL 13 2014

NOTE:  "FAIR" INDICATES FEW OR NO CLOUDS BELOW 12,000 FEET WITH NO
SIGNIFICANT WEATHER AND/OR OBSTRUCTIONS TO VISIBILITY.

KSZ001>006-013>018-027>032-041>047-131100-
NORTHWEST KANSAS

CITY           SKY/WX    TMP DP  RH WIND       PRES   REMARKS
GOODLAND       CLOUDY    68  61  78 S3        30.24F
HAYS           MOCLDY    70  63  78 NW9       30.10R
HILL CITY      CLOUDY    69  66  90 NW8       30.16R
RUSSELL        CLOUDY    73  69  87 N7        30.05S
$$

KSZ061>065-074>080-084>089-131100-
SOUTHWEST KANSAS

CITY           SKY/WX    TMP DP  RH WIND       PRES   REMARKS
DODGE CITY     CLOUDY    73  66  78 N17G25    30.13S
ELKHART          N/A     69  59  70 NW6         N/A
GARDEN CITY    CLOUDY    70  64  81 N14       30.15S
GREAT BEND     CLOUDY    73  68  83 N9        30.06R
LIBERAL        MOCLDY    70  59  68 NW13      30.17S
PRATT          PTCLDY    72  68  88 NW6       30.06R
$$

KSZ066>073-081>083-090>101-131100-
SOUTHEAST KANSAS

CITY           SKY/WX    TMP DP  RH WIND       PRES   REMARKS
CHANUTE        CLEAR     70  61  73 S7        30.01S
COFFEYVILLE    CLEAR     71  63  75 S5        30.01S
HUTCHINSON     MOCLDY    79  58  48 SW9       29.99S
MEDICINE LODGE   N/A     75  57  53 S8        30.01S
NEWTON         MOCLDY    75  54  46 SW10      30.03S
PARSONS        CLEAR     71  62  73 S5        30.02F
WICHITA INTL   MOCLDY    71  60  68 S8        30.00S
WICHITA JABRA  MOCLDY    75  59  57 S10       30.00R
WICHITA MCCONL CLOUDY    73  60  63 S12       30.01S
WINFIELD       CLEAR     70  61  73 S5        30.03S
$$

KSZ007>012-019>026-033>040-048>060-102>105-131100-
NORTHEAST KANSAS

CITY           SKY/WX    TMP DP  RH WIND       PRES   REMARKS
CONCORDIA      CLOUDY    70  68  93 N8        30.04S
EMPORIA        MOCLDY    74  61  63 S5        30.01S
LAWRENCE       CLOUDY    75  69  81 NE3       30.03S
MANHATTAN      CLOUDY    75  69  81 E7        30.00F
MARYSVILLE     CLOUDY    68  66  94 NE7       30.02R
OLATHE IND     CLOUDY    76  69  79 N10       30.03S
OLATHE EXE     CLOUDY    77  67  71 N8        30.02S
SALINA         CLOUDY    77  67  71 N14       30.02R
TOPEKA BILLARD CLOUDY    75  72  90 N7        30.02S
TOPEKA FORBES  CLOUDY    75  73  93 NE7       30.02S
$$


USA.gov is the U.S. government's official web portal to all federal, state and local government web resources and services.